Location: Young's Pond
(41.2695°N, 72.7766°W)
Time: 22:34:46
(UTC-04:00)

Daily predictions for brighter satellites

Satellite Brightness Start Highest point End
(mag) Time Altitude Azimuth Time Altitude Azimuth Time Altitude Azimuth
Cosmos 2227 Rocket 3.9 20:59:38 10° SE 21:02:23 14° E 21:05:10 10° ENE
ERS-1 Rocket 3.1 21:01:57 10° SSE 21:06:59 85° WSW 21:12:04 10° NNW
ALOS 3.7 21:02:42 10° SSW 21:07:01 37° W 21:11:22 10° NNW
OAO 2 Rocket 4.2 21:03:57 10° SW 21:08:37 32° SSE 21:13:19 10° ESE
Cosmos 1300 3.7 21:07:47 10° NNE 21:11:15 31° ENE 21:14:41 10° SE
Envisat 3.1 21:06:26 10° SSE 21:11:27 64° ENE 21:16:29 10° N
ERBS 3.9 21:10:10 10° SSE 21:12:32 17° ESE 21:14:53 10° E
Tiangong 1 1.1 21:12:16 10° WSW 21:15:21 58° SSE 21:18:24 10° E
CZ-4 SHROUD 4.0 21:12:43 10° SE 21:15:37 35° ENE 21:18:31 10° N
SL-16 R/B 4.4 21:15:13 10° NNE 21:17:04 11° NE 21:18:54 10° ENE
NOSS 3-1 (C) 3.4 21:11:36 10° SSW 21:17:20 64° ESE 21:23:42 10° NE
Cosmos 2333 Rocket 3.5 21:15:46 10° N 21:20:38 27° NE 21:25:28 10° ESE
Cosmos 2151 3.0 21:18:28 10° S 21:22:39 87° W 21:26:54 10° N
Delta 2 Rocket 3.8 21:22:26 10° WSW 21:25:49 32° S 21:28:16 14° SE
SL-23 DEB 4.1 21:21:05 10° WNW 21:26:31 71° SW 21:29:29 14° SE
ARGOS 4.1 21:21:59 11° SE 21:26:34 34° ENE 21:31:22 10° N
Cosmos 2058 2.9 21:23:13 10° S 21:27:15 61° E 21:31:19 10° NNE
Cosmos 2112 Rocket 4.2 21:22:49 10° NNW 21:28:04 74° WSW 21:33:19 10° S
Cosmos 2297 Rocket 3.7 21:26:15 12° SE 21:28:57 16° E 21:32:21 10° ENE
Cosmos 1937 Rocket 4.1 21:24:55 10° SSE 21:29:37 35° E 21:34:18 10° NE
Cosmos 2219 Rocket 2.9 21:27:26 10° N 21:32:43 41° ENE 21:37:10 14° SE
COSMOS 2428 2.7 21:27:06 10° NNW 21:32:48 81° ENE 21:37:58 13° SSE
Cosmos 1455 4.3 21:31:19 10° NE 21:33:19 14° ENE 21:35:05 11° E
Nimbus 7 Rocket 4.4 21:27:44 10° NNE 21:33:38 88° ESE 21:39:31 10° SSW
deb Chang Zheng 4 4.3 21:32:41 10° N 21:36:57 58° WNW 21:41:13 10° SSW
Cosmos 2298 Rocket 4.0 21:35:32 10° S 21:40:50 74° ESE 21:46:10 10° NNE
Cosmos 1726 2.3 21:37:38 10° N 21:41:23 56° E 21:44:08 17° SSE
Sich 1 3.1 21:40:26 10° S 21:44:46 58° E 21:49:05 10° NNE
PSLV R/B 3.3 21:44:56 15° S 21:47:24 70° WSW 21:50:27 10° NNW
Cosmos 1939 Rocket 4.1 21:44:42 10° SSW 21:48:22 37° W 21:52:00 10° NNW
CZ-4B R/B 3.6 21:44:49 10° NNE 21:50:02 61° ESE 21:55:07 10° S
Cosmos 1633 Rocket 3.0 21:46:59 11° S 21:51:10 65° E 21:55:30 10° NNE
Cosmos 2242 Rocket 3.8 21:47:01 10° N 21:51:26 55° E 21:54:27 19° SSE
Meteor 1-4 Rocket 2.7 21:51:06 10° N 21:54:47 57° ENE 21:56:51 23° SSE
Cosmos 1980 4.3 21:49:53 10° NNW 21:55:18 45° ENE 21:59:03 19° SE
SPOT 5 3.2 21:51:24 11° S 21:55:50 61° W 22:00:41 10° NNW
USA 245 1.9 21:59:33 40° SSE 22:00:13 69° ENE 22:02:29 10° N
Cosmos 2219 4.3 21:57:26 10° SW 22:02:58 48° WNW 22:08:32 10° NNE
Cosmos 292 Rocket 3.7 22:00:17 10° NNW 22:05:04 84° ENE 22:08:03 23° SSE
Cosmos 2237 Rocket 2.6 22:01:47 10° NNW 22:07:22 52° ENE 22:10:50 22° SE
MetOp-B 4.5 22:03:01 13° S 22:07:45 64° WSW 22:13:05 10° NNW
H-2A R/B 2.8 22:05:52 21° SE 22:08:59 41° ENE 22:14:04 10° N
Cosmos 2082 3.8 22:07:50 12° S 22:13:02 55° ESE 22:18:37 10° NNE
DELTA 2 R/B(2) 3.5 22:13:06 10° W 22:14:48 60° SSW 22:14:48 60° SSW
Cosmos 1271 Rocket 2.7 22:11:07 10° N 22:14:58 84° W 22:17:01 27° S
Cosmos 1898 Rocket 3.9 22:10:35 10° SSW 22:15:42 63° WNW 22:20:54 10° NNE
DELTA 2 DEB (DPAF) 4.3 22:14:16 27° SE 22:16:32 59° ENE 22:20:57 10° N
Cosmos 2360 Rocket 4.2 22:12:30 10° NW 22:16:35 21° W 22:20:41 10° SSW
Landsat 7 4.0 22:14:43 26° SE 22:17:12 57° ENE 22:21:52 10° N
Cosmos 220 Rocket 4.1 22:14:18 10° SSW 22:18:40 80° WNW 22:23:09 10° NNE
CZ-4C R/B 3.2 22:18:52 37° SE 22:19:57 56° ENE 22:23:23 10° N
Iridium 2 3.6 22:19:29 29° S 22:21:21 80° E 22:25:13 10° N
SPOT 1/Viking Rocket 3.8 22:17:51 19° S 22:21:31 67° WSW 22:26:40 10° NNW
NOAA 11 4.2 22:18:01 22° SSE 22:21:39 85° WSW 22:27:09 10° NNW
Cosmos 1125 Rocket 4.4 22:20:15 26° SE 22:21:50 31° E 22:26:29 10° NE
NOSS 3-1 (A) 4.0 22:16:40 10° SW 22:22:30 62° NW 22:29:02 10° NNE
Cosmos 1626 2.4 22:21:47 37° SE 22:22:51 49° E 22:26:30 10° NNE
Cosmos 1346 3.0 22:22:51 53° SE 22:23:17 61° E 22:26:16 10° NNE
Cosmos 1703 3.4 22:23:37 20° SSW 22:26:14 70° W 22:30:09 10° N
YAOGAN 6 4.1 22:27:34 17° SSW 22:29:49 31° W 22:33:05 10° NNW
OTV 4 2.5 22:28:41 10° WSW 22:29:40 18° SW 22:29:40 18° SW
Cosmos 1241 Rocket 4.4 22:25:54 10° SSW 22:32:06 86° ESE 22:38:23 10° NNE
Terra 2.0 22:31:05 32° SE 22:33:04 57° ENE 22:37:44 10° N
SL-08 RB Rocket 3.9 22:32:55 27° S 22:35:13 65° WSW 22:39:43 10° NNW
Nadezhda 1 Rocket 4.0 22:37:44 10° N 22:43:51 82° W 22:47:24 27° S
Spot 4 4.1 22:42:22 36° SE 22:44:08 58° ENE 22:48:54 10° N
ATLAS 2AS CENTAUR R/B 2.9 22:37:09 10° SSW 22:44:35 79° ESE 22:52:40 10° NE
Cosmos 1470 Rocket 3.8 22:42:21 25° SSW 22:44:48 66° W 22:49:07 10° N
Cosmos 2227 Rocket 2.3 22:40:01 10° SSW 22:45:41 78° WNW 22:51:23 10° NNE
Cosmos 1933 Rocket 3.8 22:43:16 25° SSW 22:45:49 68° W 22:50:16 10° N
ERBS 3.5 22:45:44 10° WSW 22:49:06 44° NW 22:52:28 10° NNE
Cosmos 1703 Rocket 4.2 22:45:43 10° N 22:49:51 40° ENE 22:50:40 36° ESE
SAR-Lupe-2 3.5 22:49:41 61° ESE 22:50:07 70° ENE 22:53:42 10° N
NOSS 0 Rocket 4.3 22:44:18 10° NNW 22:50:20 57° WSW 22:53:27 28° S
Tiangong 1 1.4 22:48:52 10° W 22:51:57 64° N 22:52:18 57° NE
OAO 2 Rocket 3.7 22:47:57 10° WSW 22:52:59 43° S 22:53:39 41° SSE
ATLAS 3B R/B 2.8 22:49:02 10° NNW 22:56:03 68° NE 22:59:21 32° SE
SL-16 R/B 2.3 22:56:41 10° NNW 23:02:21 64° ENE 23:04:25 39° SE
Lacrosse 4 Rocket 1.8 22:58:19 10° NNW 23:02:43 60° ENE 23:03:42 47° ESE
DMSP B5D2-2 4.0 22:59:03 10° NNE 23:04:18 84° WNW 23:06:47 32° SSW
Cosmos 2333 Rocket 2.9 22:59:37 10° NW 23:05:07 47° WSW 23:07:32 30° SSW
Cosmos 1709 Rocket 3.9 23:02:50 35° S 23:05:35 78° E 23:11:42 10° N
ARGOS 4.5 23:03:31 18° SSW 23:06:46 32° W 23:11:33 10° NW
BREEZE-M TANK 4.1 22:46:40 10° WSW 23:06:53 81° NNW 23:11:05 10° ENE
Cosmos 468 4.5 23:01:34 10° NNW 23:06:56 81° WSW 23:08:38 45° S
Cosmos 2221 Rocket 3.7 23:04:03 10° N 23:08:35 62° E 23:09:20 53° SE
Cosmos 1455 3.2 23:05:41 10° NNW 23:09:14 38° W 23:10:08 33° SW
Aureole 2 Rocket 4.3 23:07:27 10° NNE 23:09:45 20° ENE 23:09:45 20° ENE
USA 238 DEB 4.5 23:03:50 10° NNW 23:10:33 45° NE 23:14:41 23° ESE
USA 238 4.5 23:03:56 10° NNW 23:10:39 45° NE 23:14:48 22° ESE
Cosmos 2297 Rocket 2.4 23:07:58 17° SW 23:12:20 68° WNW 23:18:00 10° NNE
COS B Rocket 3.6 23:10:34 10° NNE 23:14:28 53° E 23:14:33 53° E
Cosmos 1933 3.2 23:11:00 10° N 23:15:05 87° E 23:15:26 74° SSE
COSMOS 2455 2.8 23:09:49 10° NNW 23:15:53 89° WSW 23:17:55 44° SSE
Cosmos 2219 Rocket 3.6 23:11:46 10° NW 23:16:27 28° WSW 23:18:54 20° SW
NOSS 2-3 (E) 3.9 23:18:12 52° S 23:19:13 66° ESE 23:24:44 10° NE
Cosmos 1603 4.3 23:31:00 10° NNW 23:36:31 48° ENE 23:38:14 37° ESE
Cosmos 2181 Rocket 4.2 23:31:06 10° NNW 23:37:28 71° W 23:39:49 41° SSW
Cosmos 2251 Rocket 4.1 23:32:47 10° N 23:37:56 47° ENE 23:39:06 40° ESE
H-2A R/B 3.9 23:39:06 10° NE 23:42:10 28° ENE 23:42:10 28° ENE
CZ-4C R/B 3.8 23:36:53 10° NNW 23:43:27 41° NE 23:48:28 19° ESE
SeaSat 1 2.9 23:43:30 44° E 23:44:34 53° ENE 23:49:22 10° NNW
Cosmos 2184 Rocket 4.0 23:43:46 50° SSE 23:45:19 68° E 23:51:27 10° NNE
NOSS 2-3 (C) 4.1 23:44:46 40° SW 23:46:34 76° NW 23:52:16 10° NNE
H-2A R/B 3.7 23:46:30 21° SW 23:48:29 26° W 23:53:00 10° NW
ASTEX 1 4.0 23:46:05 10° NNE 23:50:42 41° E 23:50:44 41° E
Cosmos 2237 Rocket 3.8 23:46:42 10° NW 23:51:00 22° W 23:52:39 20° SW
Meteor 1-26 Rocket 4.3 23:46:21 10° NNW 23:51:58 72° W 23:53:14 53° SSW
FALCON 9 R/B 3.2 23:35:27 10° W 23:52:39 49° SSW 23:54:02 44° S
Cosmos 1733 Rocket 3.8 23:53:33 42° ENE 23:53:33 42° ENE 23:57:23 10° NNE
Cosmos 1869 Rocket 4.3 23:53:42 43° WSW 23:54:26 47° WNW 23:58:47 10° N
